RH
17 19 22 24 22 19 20 21 20 18 16 14 15 18 23 25 28 38 45 49 45 41 43 42 36 34 33 30 31 33 32 35 36 36 40 37 32 33 37 42 52 72 91 99 101 101 101 101 101 100 100 101 101 100 101 101 101 102 102 102 102 101 101 100 99 98 94 86 79 77 75 73 71 67 66 66 64 64 64 70 80 83 85 91 92 90 86 80
16 17 20 24 24 21 19 22 21 19 17 15 15 16 21 23 25 35 44 49 51 50 47 40 39 40 38 32 29 33 30 29 32 31 33 34 33 34 37 41 45 59 80 96 102 103 103 102 101 101 102 103 103 102 102 101 99 99 97 95 93 92 91 90 88 86 83 79 73 70 70 69 68 69 69 72 74 75 83 93 98 96 95 96 92 84 75 67
16 16 19 24 25 22 19 21 22 19 18 15 15 15 19 21 24 32 38 43 43 47 52 46 49 45 34 33 32 33 31 25 27 29 30 32 33 35 37 40 43 47 58 74 87 94 96 97 96 95 95 94 93 93 90 88 87 86 87 87 86 86 84 79 78 79 78 77 74 70 68 67 68 72 75 81 84 83 93 102 102 98 92 86 79 74 69 62
16 16 19 23 25 24 20 21 22 20 19 17 15 14 18 20 25 30 31 38 39 41 52 50 49 40 25 27 27 30 35 30 27 26 27 30 31 33 36 40 43 45 47 52 61 68 73 76 77 76 76 75 74 75 75 77 80 82 83 83 81 80 78 74 76 78 77 76 76 74 70 67 68 73 79 89 92 88 91 95 90 83 74 69 68 68 68 65
16 16 18 23 26 26 21 20 22 21 18 18 16 14 18 21 26 29 29 40 42 37 43 42 35 27 20 21 21 27 33 33 31 29 29 31 32 34 36 39 41 44 47 49 52 54 57 59 61 62 63 65 67 69 71 74 76 78 78 78 77 77 76 75 78 80 80 81 82 84 81 74 73 77 84 94 97 92 87 84 77 71 66 64 65 66 68 68
16 16 19 23 26 27 22 20 23 21 19 19 17 15 17 23 27 28 29 38 38 29 32 34 26 19 20 23 25 29 29 27 28 29 32 31 33 35 35 38 40 42 44 46 49 50 52 53 55 57 60 64 66 68 71 71 73 75 75 77 80 83 84 83 84 82 83 85 86 87 86 84 84 85 91 96 93 86 80 74 71 70 68 65 65 67 70 72
15 16 19 23 26 27 22 21 24 21 19 20 18 16 17 22 26 25 26 31 31 26 27 30 27 21 23 28 29 27 26 26 24 25 29 29 31 32 33 36 37 39 40 41 43 45 47 50 54 59 63 67 68 71 73 75 81 86 86 85 87 89 92 91 90 88 88 90 89 86 84 84 84 85 88 88 83 79 77 75 75 74 73 72 72 73 74 75
15 16 19 23 27 28 24 23 25 22 20 21 19 17 17 21 23 23 25 27 27 25 26 29 28 25 26 29 29 26 26 26 23 24 26 27 28 28 29 31 33 35 37 41 44 47 51 58 65 67 71 77 80 84 85 86 93 98 98 97 93 89 88 87 88 90 92 92 88 85 85 87 84 83 82 80 79 78 79 82 82 81 80 80 79 78 77 77
15 16 20 23 28 28 25 24 24 22 21 20 19 17 17 19 20 22 23 24 26 27 27 27 27 26 26 27 25 26 27 25 22 22 23 25 25 25 27 29 31 34 37 42 48 54 63 75 82 82 86 92 94 96 97 96 99 102 103 101 96 92 91 90 91 92 92 92 89 88 91 90 84 82 83 81 83 85 87 89 87 85 83 82 81 80 80 79
15 17 20 25 28 27 25 24 24 22 20 20 20 18 17 18 19 20 22 22 25 27 28 29 29 26 25 23 22 25 28 26 22 21 24 28 27 28 30 32 35 39 44 49 56 66 78 90 94 94 97 100 100 102 103 102 102 103 103 101 98 98 97 96 98 97 96 95 92 89 88 84 80 82 84 83 87 91 92 91 87 85 84 83 83 82 81 81
15 18 22 26 27 26 24 24 24 22 20 20 20 20 18 17 18 18 20 21 23 25 27 30 30 28 26 23 22 25 29 27 24 25 30 35 36 38 40 45 50 53 59 64 70 77 83 90 94 96 100 102 103 104 104 103 101 101 102 102 101 102 101 99 99 95 93 91 86 84 84 82 80 83 83 83 88 90 87 85 85 85 84 82 81 81 81 82
16 19 24 26 26 25 24 24 23 22 20 20 21 21 20 18 18 19 19 21 22 24 27 28 29 30 30 25 22 26 28 27 27 31 35 41 47 52 56 67 79 83 83 83 85 87 88 90 93 96 98 99 101 102 102 100 100 102 102 103 102 101 99 94 90 86 84 84 82 83 84 82 79 80 81 83 87 86 82 81 83 83 83 82 81 82 81 80
17 21 25 25 25 24 24 23 23 22 21 21 21 21 21 19 19 18 19 20 22 24 27 28 30 31 30 27 28 30 30 32 37 43 48 55 62 68 75 85 98 102 99 96 96 97 98 98 98 98 99 100 101 101 101 101 102 104 104 103 98 90 84 81 82 84 85 84 83 83 82 79 77 78 79 82 85 85 83 82 81 81 82 84 84 83 79 75
18 23 24 24 24 23 23 23 22 22 22 21 22 23 22 20 20 20 22 23 25 28 29 29 30 31 30 32 34 35 38 44 52 61 70 79 85 91 96 99 102 102 99 100 100 100 101 100 100 101 100 101 101 101 102 103 103 104 105 101 90 81 80 82 85 87 86 84 79 77 77 76 77 78 78 79 81 82 83 82 81 81 80 80 78 74 70 66
20 23 23 23 23 23 23 22 22 23 22 22 24 25 25 25 26 27 29 31 32 33 33 33 34 35 35 38 41 47 57 64 72 83 92 98 99 100 101 101 101 100 100 100 100 100 100 100 101 100 100 100 101 101 101 101 102 102 100 91 83 83 86 87 87 86 86 84 79 75 74 75 78 79 77 77 79 81 85 86 85 85 82 77 69 62 57 54
21 21 21 22 22 22 22 22 23 24 23 24 25 26 28 29 32 34 36 37 39 40 41 44 49 52 53 56 62 72 81 87 93 100 101 100 100 100 100 100 100 100 100 100 100 101 101 101 101 100 100 99 99 98 98 98 97 94 88 83 83 87 91 92 90 89 91 91 86 82 81 83 85 84 80 78 79 81 83 85 87 87 81 72 65 60 57 55
20 20 20 21 22 22 22 23 25 25 23 24 25 26 28 32 36 39 41 43 45 46 50 59 70 75 78 83 89 93 97 101 105 104 101 99 100 101 101 101 101 101 101 100 99 100 101 101 101 100 99 99 101 101 100 96 90 84 81 84 88 92 95 97 95 94 95 93 87 84 85 87 89 89 87 85 83 82 79 79 80 77 69 62 60 62 64 67
19 20 20 21 22 22 23 25 25 24 24 25 27 30 35 40 45 49 53 57 60 63 69 78 87 93 96 99 100 102 102 104 107 107 104 103 102 102 102 102 102 101 101 101 100 101 100 99 98 98 99 101 102 99 93 87 82 81 83 89 94 98 101 101 102 102 102 100 95 92 93 93 94 95 96 95 93 92 89 83 77 70 65 64 65 68 73 79
19 19 20 22 23 24 25 26 26 25 26 29 33 38 46 55 62 69 74 77 83 89 94 96 98 102 106 105 103 104 105 104 104 105 104 103 102 102 102 101 101 101 101 101 101 101 101 102 102 101 100 98 94 87 83 82 84 88 92 96 100 102 102 103 106 105 103 100 93 90 91 91 93 95 98 99 99 99 94 86 78 74 75 79 81 82 82 82
19 19 21 24 25 26 27 27 27 28 31 38 43 51 63 75 82 86 88 91 97 101 102 104 104 104 105 104 103 104 104 102 101 101 101 101 101 101 100 101 101 100 101 101 102 103 103 102 99 94 89 84 81 80 82 86 90 96 99 100 101 103 104 105 106 103 101 95 87 86 88 87 89 92 95 96 95 92 87 82 80 80 82 86 90 92 92 91
18 20 24 27 27 27 27 27 28 31 38 47 58 70 81 88 92 97 99 99 98 96 95 98 100 99 99 99 100 101 101 100 100 100 100 100 100 101 101 101 101 101 103 104 103 100 93 87 82 78 76 76 78 80 83 88 94 98 101 102 103 104 106 107 106 105 105 101 93 91 91 89 89 91 90 86 83 81 80 81 82 82 84 88 92 95 97 97
19 23 27 27 27 28 28 28 32 39 47 59 72 82 88 92 94 96 97 94 90 89 91 95 97 98 100 100 100 100 100 100 100 100 100 101 101 101 101 102 103 103 102 99 93 87 81 78 78 79 81 83 86 88 91 94 95 96 97 99 100 100 101 102 100 99 97 94 87 84 83 80 77 77 73 71 72 74 75 76 78 79 83 86 88 89 89 90
23 27 28 28 28 28 28 32 40 48 60 74 85 89 91 95 92 86 88 93 94 94 97 99 99 100 100 100 100 100 100 100 99 99 100 101 101 102 102 103 101 96 91 85 80 78 79 81 84 87 90 94 96 97 99 99 99 99 99 98 96 93 92 92 91 90 86 79 72 68 65 61 59 60 62 66 70 70 70 70 72 74 77 79 80 80 80 80
26 27 27 27 28 29 31 39 49 60 75 90 98 98 97 96 88 83 92 99 99 99 100 100 100 100 100 100 99 98 97 97 98 99 101 101 100 98 96 93 89 86 82 78 78 80 84 87 91 95 99 102 103 104 104 104 102 101 98 95 93 90 88 86 86 86 80 70 60 56 52 47 49 53 57 62 64 63 63 64 65 65 66 68 69 70 71 71
26 26 27 28 29 31 37 47 59 73 87 97 103 105 104 98 86 87 97 100 100 100 100 100 100 100 100 100 99 98 96 97 100 102 101 100 98 95 91 87 85 83 79 76 79 86 92 96 99 101 102 103 104 103 102 99 96 93 90 89 88 85 81 76 73 71 69 63 53 49 47 42 45 52 56 59 60 59 60 61 60 58 58 60 61 61 60 60
25 25 27 29 31 36 46 59 73 86 95 99 104 106 107 104 92 89 96 99 99 101 100 100 100 100 100 100 99 99 100 101 100 100 99 99 97 93 90 86 83 80 79 81 88 94 99 101 100 100 99 99 99 98 96 95 94 91 86 83 78 73 68 64 62 61 64 65 57 49 45 42 43 50 56 58 56 56 57 56 53 52 53 52 52 51 50 50
25 27 29 31 36 46 60 75 84 92 96 101 105 102 103 108 103 97 98 100 100 102 102 101 101 101 100 99 101 103 103 99 97 98 99 97 93 88 86 84 83 83 86 93 100 102 101 100 99 99 99 98 96 96 95 92 89 83 76 72 68 64 63 63 64 63 63 66 64 52 44 41 38 41 49 52 49 49 50 49 47 47 46 43 42 41 40 39
27 29 31 35 44 57 70 81 86 90 95 101 106 102 102 109 108 98 98 101 101 102 103 103 103 102 99 101 104 103 99 96 98 98 95 91 87 86 88 89 91 94 97 101 104 104 104 105 104 101 100 98 94 91 87 81 76 71 68 68 67 66 66 65 64 62 58 60 63 54 44 40 36 37 45 45 42 43 44 43 42 40 36 33 31 30 29 28
28 31 35 41 54 66 76 82 85 91 97 99 101 100 100 103 98 91 94 100 101 101 101 100 101 101 102 103 100 98 98 98 99 95 89 88 87 90 96 98 100 104 106 108 109 108 107 106 104 103 100 97 92 85 80 75 72 69 68 69 67 64 63 61 60 58 55 56 59 53 45 40 33 34 40 38 34 35 34 31 30 28 26 24 23 23 23 23
30 34 40 49 63 74 80 85 89 95 101 100 95 91 90 91 90 92 97 99 100 101 101 100 102 102 101 99 95 97 99 99 97 93 90 91 93 97 102 101 103 107 109 111 111 109 109 107 106 104 97 89 83 77 74 73 71 68 66 66 66 62 59 57 56 54 52 51 50 45 41 36 28 26 30 30 26 26 24 25 25 24 24 23 23 23 21 21
32 37 44 56 71 79 83 90 95 99 102 99 93 89 89 91 94 99 102 102 103 105 103 102 103 101 99 98 98 99 101 102 100 96 96 98 101 105 106 103 105 109 112 111 107 106 106 102 96 90 82 78 76 73 70 69 67 64 60 59 60 58 55 53 51 47 45 44 41 37 34 30 25 22 24 25 25 25 25 27 27 26 26 25 23 21 20 20
32 39 48 60 71 78 83 91 98 102 103 99 96 95 96 98 102 105 106 106 106 104 100 99 98 99 100 101 101 101 102 104 102 99 101 102 104 107 107 107 108 108 108 105 99 95 90 84 81 79 78 78 78 73 66 61 59 56 53 51 51 49 46 46 46 43 40 38 37 34 29 26 26 27 28 28 28 27 26 26 25 24 23 21 19 18 18 17
34 41 50 61 72 80 88 94 99 104 104 100 96 95 96 100 104 101 97 96 97 96 97 97 98 100 101 101 102 103 104 105 104 104 106 107 109 110 111 112 110 107 104 100 96 92 86 82 82 82 79 75 71 68 63 58 55 53 52 50 48 45 40 38 38 36 33 31 32 33 28 24 25 27 29 29 27 25 24 22 21 20 18 16 15 15 15 15
34 40 52 65 76 84 88 90 91 92 92 90 90 91 93 95 93 88 87 90 93 94 95 96 98 101 102 103 105 106 106 106 106 107 109 111 112 113 113 111 107 102 98 95 93 91 88 83 78 75 70 65 61 58 56 54 51 49 48 46 43 39 33 28 25 23 21 19 24 30 28 24 23 24 25 26 23 22 21 19 18 17 15 14 14 14 15 16
31 38 49 59 66 71 74 75 79 80 81 82 83 85 87 87 86 87 91 92 92 93 94 97 101 103 104 104 104 104 104 105 108 108 110 111 110 108 103 96 91 87 85 87 87 85 83 77 71 67 62 57 55 52 50 50 48 45 42 39 35 31 26 22 19 18 19 16 19 25 25 22 21 20 20 20 18 18 17 16 15 15 14 16 18 20 23 23
28 34 43 50 53 56 59 64 70 74 75 78 80 82 85 88 90 92 93 95 98 102 103 104 104 103 103 102 102 103 105 106 108 108 108 107 102 96 88 82 81 81 82 84 82 80 79 72 64 60 56 52 53 52 48 46 43 38 34 31 28 25 24 23 21 21 21 17 17 19 19 17 17 16 17 17 16 16 16 15 16 17 19 21 24 25 25 23
28 33 41 49 51 51 53 59 66 70 73 77 80 83 87 91 93 96 100 104 106 106 105 105 104 103 104 105 106 108 109 108 106 103 99 94 88 85 83 83 84 83 81 79 76 74 74 70 63 58 56 53 51 49 44 38 33 30 27 25 24 23 23 23 21 19 17 15 14 15 15 14 14 15 16 16 16 16 17 18 18 19 20 21 21 21 19 18
30 35 42 49 52 53 57 62 64 67 71 75 79 82 86 91 95 100 103 104 104 104 105 106 107 108 108 108 107 107 106 102 96 91 85 81 80 82 84 85 83 80 76 71 68 65 64 65 60 54 53 50 44 41 36 30 25 23 22 21 21 21 20 19 18 15 13 11 11 12 13 12 15 18 18 17 17 18 17 17 16 16 16 16 14 13 11 10
33 36 41 48 52 54 58 60 63 67 71 75 80 85 90 94 98 101 102 104 106 106 105 105 106 107 105 102 98 93 88 85 81 79 79 79 79 80 80 80 77 74 70 65 62 58 55 56 55 49 44 40 34 30 28 25 22 22 23 22 20 20 18 16 16 15 13 11 10 10 10 13 17 19 18 18 18 18 16 15 14 13 12 10 8 7 6 6
37 39 42 47 51 54 56 59 63 68 73 78 83 88 92 97 101 102 101 102 102 100 101 102 102 99 94 88 82 77 74 74 77 78 78 78 79 78 76 73 71 69 67 62 59 55 50 49 47 42 35 30 27 24 23 24 25 27 27 24 21 19 16 15 14 15 14 12 12 11 9 15 21 18 16 18 17 16 15 14 12 10 8 7 6 5 6 6
36 38 41 43 47 51 54 58 64 70 75 80 85 89 92 94 95 94 92 92 93 95 96 95 90 83 77 72 69 70 73 76 77 77 78 78 78 77 73 71 70 68 65 60 54 50 47 42 38 34 30 28 26 24 25 28 29 28 24 21 18 16 15 14 13 14 15 15 17 15 13 19 23 18 16 17 16 14 13 11 9 7 6 6 7 7 7 6
34 36 39 41 45 49 53 58 64 69 72 76 78 80 81 82 82 83 84 84 86 86 83 78 72 66 64 66 70 74 75 76 77 78 81 79 75 73 72 72 70 65 59 55 51 47 42 36 32 29 28 26 24 25 28 30 29 25 20 17 15 14 14 14 13 13 14 17 20 21 20 22 23 20 19 17 14 13 11 8 7 7 7 8 8 7 7 6
35 36 38 40 43 47 51 55 58 61 63 66 67 69 71 73 74 74 74 73 71 70 65 59 57 60 66 72 76 76 75 77 80 80 78 75 73 73 73 71 67 61 57 54 50 44 36 30 28 26 26 26 28 30 31 29 26 21 18 16 14 14 15 16 18 18 18 20 23 23 22 22 22 21 19 15 12 11 9 8 8 8 8 7 6 5 5 4
35 37 38 39 41 44 47 50 51 53 55 56 58 60 62 62 62 62 61 60 58 54 52 54 62 70 75 76 76 77 80 82 81 77 75 76 76 75 72 68 63 59 56 51 45 37 30 26 23 22 23 26 31 35 32 28 23 18 16 14 13 15 17 20 23 23 21 20 22 24 22 20 21 19 14 11 10 9 9 9 9 8 7 6 5 4 4 4
33 36 37 39 40 42 44 45 46 47 48 49 51 52 53 55 56 55 52 49 47 50 57 67 74 75 74 75 79 83 85 84 81 78 79 79 78 75 71 65 60 57 53 45 38 32 29 26 24 23 25 26 27 28 24 20 17 16 15 14 15 17 20 22 23 22 20 18 22 27 23 19 20 18 11 10 10 10 11 10 9 8 7 6 5 4 4 4
31 33 34 35 36 37 38 39 39 41 43 45 46 48 50 50 47 45 44 46 54 63 71 73 72 72 75 79 84 86 86 85 84 83 82 81 78 74 68 63 58 53 47 39 34 31 30 28 27 30 33 32 26 22 18 15 14 14 14 15 18 22 25 27 26 25 23 20 23 28 23 18 20 17 12 12 13 13 13 12 10 9 7 6 5 5 5 5
29 29 30 31 32 33 34 35 37 39 41 43 44 44 42 40 39 43 50 59 66 70 69 68 71 76 81 84 87 88 87 85 85 86 84 81 78 74 67 61 55 47 40 35 32 30 30 30 32 37 38 33 24 18 16 15 14 14 14 16 21 26 29 31 31 31 28 23 22 24 21 18 18 15 14 16 17 16 15 12 10 9 7 6 5 5 5 5
26 27 28 29 31 32 34 37 39 40 40 39 36 35 36 40 47 55 61 65 66 65 67 72 78 83 87 91 92 91 88 87 87 86 84 81 77 71 64 58 50 42 36 34 31 30 30 32 35 39 38 29 20 16 16 15 15 16 17 18 22 28 30 31 33 34 31 26 23 20 17 16 16 15 17 19 18 15 13 11 9 7 6 5 5 5 5 5
25 25 27 29 31 33 35 36 36 34 33 31 32 36 44 52 58 62 63 63 63 67 74 80 85 88 93 95 94 91 91 91 89 85 82 77 70 64 59 53 46 38 35 34 32 31 32 34 36 36 33 25 18 16 16 16 17 20 22 25 28 30 31 35 39 40 34 27 21 16 14 16 17 17 17 17 15 13 11 9 7 6 5 5 5 5 5 5
24 26 28 30 31 32 32 31 29 29 31 34 41 48 54 59 61 61 60 62 68 75 81 85 89 92 95 95 94 94 95 93 90 83 77 70 63 58 55 49 42 37 35 34 34 32 33 35 35 31 27 22 18 17 18 20 23 26 29 32 33 34 37 42 46 41 30 20 15 12 14 17 18 17 16 14 12 10 8 7 6 5 5 5 5 5 4 5
25 27 28 30 31 31 30 30 31 36 41 46 52 56 57 59 58 58 60 66 74 79 83 88 92 94 95 96 96 97 95 91 86 79 71 66 61 57 52 45 39 37 35 34 33 32 34 36 33 27 22 21 18 17 21 26 30 32 34 36 38 37 38 40 39 32 21 14 12 14 17 18 17 15 14 11 10 8 7 6 5 5 5 5 5 5 4 4
27 28 30 32 33 32 34 37 42 47 52 54 55 56 56 54 54 57 65 72 78 83 87 92 95 96 97 98 97 95 92 87 81 75 69 65 61 55 48 42 37 35 35 34 33 34 37 36 32 24 19 19 18 18 23 28 31 33 35 36 35 31 30 29 27 25 19 14 14 17 18 16 13 11 9 7 7 7 6 6 6 5 5 5 5 4 4 4
Wind_Speed
41 41 42 42 41 38 36 37 37 38 39 40 39 39 41 43 45 47 47 44 43 43 43 44 47 49 51 53 53 53 54 55 57 59 62 65 66 67 68 70 72 74 76 77 78 79 79 79 78 78 78 78 79 80 81 81 83 84 86 88 89 89 90 90 89 88 87 86 84 83 82 81 81 81 80 79 79 78 77 75 73 73 73 73 74 77 79 80
41 40 41 41 41 39 36 36 37 37 38 39 39 39 41 42 43 46 47 46 46 44 43 45 45 46 50 52 52 52 54 55 55 57 59 61 62 63 65 67 69 73 75 77 78 79 80 80 80 80 80 80 81 82 82 83 84 86 87 88 87 87 88 87 85 83 83 83 83 81 81 80 79 78 77 76 76 75 74 73 74 75 75 75 77 79 81 81
40 38 39 40 41 40 37 36 36 37 37 38 38 38 39 41 42 46 47 47 48 46 42 42 44 47 49 49 50 51 52 52 52 54 56 57 59 60 61 63 65 69 72 75 77 79 79 80 80 81 81 82 82 83 83 83 83 83 84 84 83 83 84 83 81 80 79 80 80 80 79 78 76 75 73 73 73 73 72 73 75 77 78 79 79 79 79 79
39 37 37 39 41 40 38 35 35 36 36 36 36 36 38 40 42 46 49 49 50 48 43 42 44 48 47 46 46 46 47 48 48 50 51 54 56 56 57 59 61 63 66 69 71 73 75 76 77 77 78 78 79 80 79 78 78 79 80 80 79 79 79 78 76 76 76 77 77 77 78 78 75 73 72 71 73 74 74 75 78 80 81 79 78 76 75 76
38 36 36 38 40 40 38 34 34 36 35 34 35 35 36 39 43 47 50 50 50 49 46 46 46 46 44 43 42 41 41 41 42 44 46 50 52 54 55 56 57 58 60 62 64 66 67 69 70 71 71 72 73 74 73 73 74 75 75 75 75 74 75 74 73 73 73 74 74 75 76 77 76 74 72 72 74 77 77 78 79 80 79 77 75 74 73 73
37 35 35 38 39 39 38 34 33 35 33 33 33 34 36 40 45 49 50 50 51 49 48 48 47 45 41 39 38 37 37 38 39 39 41 44 47 51 53 54 55 55 56 57 59 60 61 62 64 65 65 66 68 69 69 69 69 70 70 70 70 70 71 71 71 72 72 73 74 75 76 76 76 75 74 75 77 78 79 78 77 77 76 75 74 73 72 73
36 34 35 37 38 39 38 33 32 34 32 32 32 33 36 41 46 49 49 50 50 48 47 48 47 44 41 40 39 38 37 38 39 38 39 41 42 45 48 51 52 53 53 54 55 57 58 59 60 61 62 63 64 64 64 65 64 65 66 67 68 68 69 71 72 73 74 75 76 77 77 76 77 76 76 78 79 78 77 76 75 75 75 74 74 73 73 73
34 33 34 36 37 38 36 32 32 32 30 31 32 33 36 41 46 47 47 48 48 47 47 47 47 45 42 41 40 38 39 40 38 38 39 40 40 42 44 46 49 50 50 51 52 53 54 54 55 57 57 58 59 60 61 62 62 63 65 67 69 70 71 72 73 73 74 76 77 78 78 78 78 77 78 79 78 77 75 74 74 74 74 74 74 74 74 74
33 32 33 35 37 38 35 32 31 30 30 30 31 32 35 39 43 44 45 45 46 47 47 47 46 45 43 41 39 38 40 40 39 39 39 40 40 41 42 43 45 46 47 48 49 49 50 50 52 53 54 55 57 58 60 61 62 64 66 68 69 70 70 71 72 73 74 76 78 78 79 80 80 78 77 77 76 75 74 73 74 74 75 75 75 75 75 76
31 31 33 34 37 38 35 32 30 29 29 29 29 30 32 36 39 41 43 44 46 46 47 47 46 45 43 41 39 38 41 41 40 39 39 39 40 40 41 41 42 43 44 45 45 46 47 49 51 53 54 56 57 59 60 62 63 64 65 67 68 69 70 71 72 74 76 78 80 80 80 80 79 76 75 76 75 74 73 74 74 75 75 75 75 76 76 77
30 31 33 35 37 37 34 31 29 27 27 27 27 28 30 33 36 39 41 43 45 45 46 46 46 45 43 41 39 39 41 41 40 39 38 38 38 38 38 38 39 40 41 42 43 45 46 48 50 52 53 55 57 58 60 61 62 63 65 67 68 70 71 73 75 78 79 80 81 80 79 79 77 75 74 75 75 74 74 75 75 76 76 76 77 77 78 78
30 31 33 36 37 35 33 30 28 26 25 25 26 26 28 30 33 36 39 41 43 44 44 45 44 44 43 42 40 40 41 41 40 39 38 37 37 37 36 35 36 37 39 40 42 44 46 48 49 51 53 55 57 58 59 61 62 64 66 69 71 73 74 76 77 78 78 78 78 77 76 77 77 75 74 74 75 76 76 76 75 76 77 78 78 78 79 79
30 32 34 36 36 33 31 29 27 25 23 24 24 25 27 29 31 34 36 39 40 41 42 43 43 43 43 41 39 39 39 39 38 37 35 35 35 35 35 35 36 38 40 41 42 44 46 48 50 52 54 56 59 60 61 62 64 66 69 72 74 75 75 75 75 75 75 75 75 76 76 77 77 76 75 74 75 76 77 77 77 77 77 78 79 79 80 79
31 33 35 35 33 31 30 28 25 23 22 23 23 24 26 28 30 32 33 35 37 38 39 40 41 41 41 39 38 37 36 36 35 33 32 31 31 33 34 36 38 41 43 44 46 47 49 51 53 55 57 59 61 63 64 65 67 69 71 73 75 75 74 73 72 73 74 75 76 76 76 76 76 76 76 76 76 77 78 78 78 78 79 79 79 80 80 79
33 35 34 32 32 31 29 26 23 22 22 22 23 24 26 27 28 30 31 32 34 35 36 37 37 37 37 36 35 34 32 32 32 31 30 30 32 34 36 38 40 43 45 47 49 51 53 54 56 58 59 61 64 65 67 67 69 70 72 73 73 73 73 73 73 72 73 75 77 77 76 76 76 76 77 77 78 79 80 80 80 80 81 81 81 80 80 80
35 34 33 32 31 30 27 24 22 22 22 23 24 25 26 27 28 29 29 30 31 32 32 32 32 32 31 30 30 29 29 29 30 32 33 34 35 37 39 41 43 45 47 49 51 53 55 57 58 60 62 63 65 67 68 69 70 71 71 72 72 71 72 72 73 72 72 75 77 77 77 77 77 78 79 79 79 80 81 82 82 82 82 82 82 81 81 81
35 33 32 31 30 28 25 23 22 23 23 23 24 24 25 26 26 27 27 27 28 29 29 29 28 28 27 27 28 28 28 29 31 34 37 38 39 40 42 44 46 47 49 51 52 54 56 58 60 61 63 64 65 67 69 70 70 71 70 70 69 69 70 72 73 73 74 76 78 78 78 79 80 81 82 82 82 82 83 84 84 84 83 83 82 82 83 83
34 32 31 30 28 26 24 23 24 24 23 22 22 22 23 23 23 23 23 23 24 25 25 26 27 27 27 28 28 28 28 29 31 35 37 39 41 43 44 46 48 49 50 53 54 56 58 59 61 62 64 65 67 68 70 71 71 70 68 67 67 68 69 72 74 75 76 78 80 80 81 81 82 83 83 84 84 85 86 86 86 86 85 84 84 84 85 86
33 31 30 28 26 25 24 25 24 23 22 21 21 22 21 21 21 21 21 22 22 22 24 25 27 27 27 28 28 28 29 30 32 35 36 38 41 43 45 47 48 50 52 54 56 58 60 61 63 65 66 67 68 69 69 69 68 67 66 66 66 68 71 74 75 77 79 81 82 82 82 83 83 84 84 85 86 86 86 86 86 86 86 86 87 88 88 89
32 30 28 27 26 25 25 25 24 22 21 21 21 22 22 22 22 22 23 23 24 24 25 25 25 26 27 28 28 29 31 32 35 36 38 39 41 44 46 48 50 53 55 56 58 61 62 64 66 67 68 68 67 67 66 66 65 65 65 67 69 70 73 76 78 79 81 83 84 84 85 85 85 85 86 86 86 86 86 86 86 87 88 89 90 91 93 93
30 28 27 26 26 26 25 24 23 23 22 22 22 23 24 25 25 25 25 25 25 25 25 25 25 26 28 29 30 32 33 35 37 38 40 42 44 46 49 51 53 55 58 60 61 64 65 66 67 67 67 66 65 64 63 63 64 66 68 70 72 73 75 77 79 81 83 85 87 87 87 88 88 87 87 86 85 85 86 86 87 88 90 91 93 94 95 97
28 27 27 27 26 26 25 24 23 22 23 23 24 24 26 27 27 26 24 22 22 22 23 25 26 28 30 31 32 34 36 38 40 41 43 45 47 49 52 54 56 58 60 62 63 64 64 64 64 63 63 62 62 62 64 65 67 69 71 72 74 75 77 78 80 82 84 86 88 88 89 89 89 87 86 85 85 86 87 88 89 90 92 93 95 96 97 99
27 27 27 27 27 26 25 24 24 23 23 24 25 27 28 28 27 24 21 20 21 22 23 26 28 30 32 34 35 37 39 41 43 45 47 49 51 53 55 57 58 59 61 61 61 61 61 60 60 60 60 62 63 65 67 69 71 73 74 75 77 78 79 80 82 83 85 87 88 88 89 89 88 87 86 86 87 88 90 91 92 93 94 95 96 98 98 99
28 28 28 27 27 26 25 24 24 24 24 25 27 29 28 28 26 21 20 22 24 25 27 29 31 33 35 37 39 40 42 44 47 48 50 52 54 55 56 57 58 58 58 58 58 58 58 59 59 60 62 65 66 68 70 71 73 75 76 78 79 81 82 83 83 84 85 87 88 89 89 89 88 88 88 89 90 91 92 93 94 95 96 97 98 99 100 101
29 28 28 27 27 26 25 24 24 24 25 27 29 29 28 28 25 21 22 26 27 29 31 32 34 36 38 39 41 43 45 47 49 51 53 53 54 54 55 55 55 55 56 56 56 57 58 60 61 63 65 67 68 70 72 74 75 77 79 80 81 83 84 84 83 83 83 86 88 90 92 90 89 89 90 91 91 93 94 95 96 97 98 99 100 101 102 103
29 28 27 27 26 26 25 24 24 25 27 28 30 30 29 28 26 23 24 27 30 32 34 35 36 38 39 40 42 44 46 48 50 51 52 52 52 53 54 55 54 54 55 56 57 59 61 63 64 66 67 69 71 73 75 76 78 80 81 82 82 83 83 84 84 84 84 86 89 91 94 92 90 91 92 92 93 95 97 98 99 100 101 101 102 103 104 105
27 27 27 27 26 26 25 25 26 27 28 30 31 31 31 30 28 25 25 27 30 33 35 36 38 39 40 42 44 46 48 50 50 50 51 51 53 53 54 55 55 56 57 59 61 63 65 66 67 68 70 72 74 76 77 78 80 81 81 82 83 83 84 85 86 87 87 88 90 93 95 94 93 92 94 95 95 97 98 100 101 102 102 103 104 105 105 107
26 27 27 27 26 26 26 26 28 28 29 30 31 32 32 33 31 29 27 28 30 32 34 36 38 40 42 43 45 47 48 48 49 50 52 53 54 54 55 56 57 58 60 63 65 67 67 69 70 72 74 75 77 78 79 79 80 80 81 82 84 85 86 87 88 89 90 90 92 95 96 96 95 95 96 97 97 99 100 101 102 103 103 104 105 106 107 107
26 26 26 26 26 26 27 28 28 28 29 30 31 32 33 33 32 30 29 31 33 33 34 36 38 40 42 44 46 47 48 49 50 52 53 54 55 55 56 58 59 62 64 66 68 69 70 72 74 75 77 78 78 79 79 80 80 81 83 84 86 87 88 88 90 91 92 92 94 96 98 98 97 95 98 99 99 100 101 102 103 103 104 105 106 107 107 108
25 26 26 26 26 27 27 28 28 28 29 30 31 31 31 31 30 31 31 33 35 36 36 38 40 42 44 46 47 48 49 51 53 54 54 55 56 57 58 60 62 65 67 68 70 71 73 75 76 77 78 78 79 79 80 81 82 83 84 86 87 89 90 90 92 93 94 94 95 97 98 99 97 95 98 100 101 102 103 103 104 105 106 106 107 107 108 109
26 26 26 26 27 27 27 27 28 28 29 30 30 30 29 29 30 31 33 35 37 38 40 41 42 44 45 47 48 50 52 55 56 57 57 58 59 61 62 63 65 67 68 70 71 73 75 76 77 77 77 78 79 80 82 83 84 85 86 87 88 90 91 92 93 94 95 94 96 97 98 100 99 98 99 102 103 103 104 105 106 107 108 108 108 108 109 109
25 25 26 26 27 27 27 28 29 29 30 30 30 30 30 31 32 33 35 37 38 40 41 42 43 44 46 47 49 52 55 58 59 59 59 60 61 63 64 66 67 68 70 72 73 74 75 75 76 76 77 79 80 82 84 85 86 87 88 89 90 91 91 92 93 94 94 94 95 98 99 100 99 100 102 103 104 105 105 106 107 108 108 108 108 108 108 109
25 26 26 27 27 27 28 29 30 31 31 31 31 32 33 33 34 35 36 37 38 39 41 42 43 45 47 49 51 55 57 59 60 60 61 62 63 64 66 67 69 70 72 73 74 74 75 75 76 78 79 80 81 83 85 86 87 88 90 91 92 93 93 92 93 94 94 93 93 96 99 99 98 99 101 103 104 105 106 106 107 107 107 107 107 107 108 108
25 26 26 27 28 29 30 31 31 31 31 32 33 34 35 35 35 35 36 37 39 40 42 43 45 47 49 51 53 56 58 59 60 61 62 63 64 66 67 68 69 70 71 71 72 73 75 76 78 79 81 82 83 84 85 87 89 89 90 91 93 94 95 94 93 94 94 91 90 93 96 97 97 99 100 102 103 104 105 105 106 106 106 106 106 107 107 108
24 26 27 28 28 29 30 30 31 31 31 32 33 34 35 35 35 36 37 38 40 42 43 45 47 49 51 53 55 56 57 58 60 61 62 64 65 67 68 68 68 69 69 70 71 73 75 78 79 81 82 83 84 85 87 88 90 90 90 91 92 94 95 95 95 95 96 94 90 91 93 95 96 97 99 101 101 102 103 103 104 104 105 106 106 107 108 110
22 24 26 27 27 28 29 29 30 31 32 32 33 33 34 35 36 37 38 39 41 43 45 47 49 50 52 53 55 56 57 59 60 61 63 64 66 66 67 67 67 68 69 70 72 74 76 79 81 82 83 84 85 87 88 89 90 90 91 92 93 94 95 96 95 95 97 96 92 90 91 92 93 95 97 99 100 101 102 102 103 104 105 105 106 107 109 110
20 22 23 25 26 27 28 29 30 31 32 32 33 33 34 35 36 38 40 41 43 45 47 49 51 52 53 55 56 57 58 60 61 62 63 64 65 65 65 66 67 68 70 71 73 75 77 79 82 83 84 85 86 87 88 89 90 90 91 92 93 94 94 95 95 94 95 95 92 90 90 89 92 95 96 97 98 99 100 101 103 103 104 104 105 106 107 108
18 20 22 24 25 26 27 29 29 30 31 32 32 34 35 36 38 40 41 44 46 47 49 50 52 53 54 55 56 58 59 60 61 62 62 62 63 63 64 66 68 70 71 73 74 76 77 80 82 84 85 85 86 86 87 89 89 90 91 92 93 93 93 93 94 94 95 94 91 89 88 86 89 95 98 98 98 98 99 100 102 103 103 104 105 105 105 105
18 19 21 23 25 26 27 28 29 29 31 32 33 34 36 38 40 41 43 45 47 48 50 51 52 53 55 56 57 57 58 59 59 60 60 61 62 63 65 66 69 71 73 74 76 77 78 80 82 84 84 85 85 85 86 88 89 90 92 93 93 94 93 92 92 94 95 95 93 91 87 84 87 94 98 99 99 99 100 100 101 102 103 103 103 103 103 102
18 19 21 23 24 25 26 27 28 30 31 32 34 36 37 39 41 43 45 46 47 49 50 51 52 54 55 56 57 57 57 57 57 58 59 61 63 65 67 68 70 72 74 76 78 79 79 80 81 83 84 85 86 86 87 88 89 91 92 93 93 94 94 92 90 92 95 96 96 96 91 85 89 95 97 98 100 101 101 101 101 102 102 102 102 101 101 101
19 19 21 22 23 25 26 27 29 30 32 33 35 37 39 40 42 44 45 46 47 48 50 51 53 54 54 55 55 55 55 56 57 58 60 62 64 66 69 71 72 74 76 78 79 80 80 80 81 82 84 86 87 88 88 88 89 90 92 92 93 93 93 93 90 89 91 93 96 98 94 89 92 97 98 99 100 101 101 101 101 101 100 100 101 101 101 100
19 20 21 23 24 25 27 28 30 31 33 35 36 38 39 41 42 43 44 46 47 49 50 52 53 53 53 53 53 54 55 56 58 60 62 64 66 68 70 72 75 76 78 79 80 81 81 81 81 82 84 86 88 88 88 88 89 90 91 92 92 92 92 92 91 89 89 90 94 98 96 93 95 98 99 100 100 100 101 101 100 100 99 99 99 98 98 97
20 21 22 24 25 26 28 29 31 32 33 35 36 38 39 41 42 43 45 46 48 49 50 51 51 51 51 52 53 54 56 58 59 61 63 66 68 70 72 74 76 78 79 80 81 81 82 81 81 82 83 86 88 89 89 89 89 89 90 91 91 91 91 91 91 91 90 90 93 97 97 96 97 99 99 100 100 100 101 101 101 100 98 97 97 96 95 93
21 22 23 24 25 27 28 30 31 32 34 35 37 38 40 41 43 44 45 46 47 48 48 48 49 49 50 52 53 55 57 59 62 64 66 68 71 73 75 76 78 79 80 81 81 82 82 83 83 83 84 85 86 86 86 87 87 88 88 88 88 88 89 89 90 91 91 91 93 97 98 97 98 100 100 100 100 100 101 101 101 99 98 96 95 94 93 92
21 23 24 25 26 27 29 30 31 33 35 36 38 39 41 42 43 44 45 46 46 46 46 47 48 49 51 52 54 56 59 61 64 66 68 70 73 75 76 78 79 80 81 81 82 83 83 84 85 86 87 87 86 85 85 84 84 85 86 86 86 86 87 88 90 91 93 93 93 97 99 97 97 100 101 100 100 100 100 100 100 99 98 96 95 94 93 92
22 23 24 26 27 28 30 31 33 34 36 37 39 40 41 42 43 44 44 44 44 45 46 47 49 50 52 54 56 58 61 63 66 68 70 73 74 76 78 79 80 80 81 82 83 84 85 86 87 88 89 90 89 87 86 85 84 84 84 85 85 86 87 89 91 92 95 95 94 96 99 97 96 99 100 99 99 99 99 99 99 98 97 96 94 92 91 90
23 24 26 27 28 30 31 33 34 35 37 38 39 40 41 41 42 42 43 43 44 45 47 48 50 52 54 56 58 60 63 65 67 70 72 74 76 78 79 80 81 81 82 83 84 84 86 87 87 88 89 90 89 86 86 86 85 85 85 85 85 87 89 90 92 93 96 97 96 97 98 97 97 98 98 98 98 98 98 98 97 96 95 94 92 90 89 88
24 26 27 28 30 31 32 33 35 36 37 38 38 39 40 40 41 41 42 43 45 46 48 49 51 53 55 57 60 62 65 67 69 71 74 76 77 79 80 81 81 82 83 84 85 86 87 88 88 87 87 89 88 86 85 86 86 86 87 87 87 89 90 92 93 95 97 99 99 99 97 96 97 98 96 96 97 97 97 97 95 94 93 92 89 87 86 85
26 27 28 29 30 31 32 34 35 36 37 37 38 39 39 40 40 41 43 44 46 47 49 50 52 54 57 59 62 64 67 69 72 74 76 77 79 79 80 81 82 83 84 85 86 87 88 88 88 86 86 87 87 86 85 85 85 86 87 88 89 90 92 93 93 95 97 98 99 98 95 94 96 96 95 95 96 96 96 95 93 92 91 89 86 85 84 82
27 28 29 30 31 32 33 34 35 35 36 36 37 38 39 40 41 42 44 45 47 48 50 52 54 56 59 61 64 66 69 71 73 75 77 78 79 80 81 82 82 84 85 86 87 88 88 88 87 86 84 85 86 84 84 85 85 86 87 88 89 91 91 92 93 94 96 97 97 95 93 93 94 94 93 94 94 94 94 93 91 89 88 86 83 82 81 80
28 29 30 30 32 33 34 35 35 35 35 36 37 38 40 41 42 44 45 47 48 50 51 53 56 58 61 63 66 68 71 73 75 77 78 79 80 81 81 83 84 84 86 87 88 89 89 88 87 86 84 84 85 83 82 83 85 86 87 88 89 90 90 91 92 93 95 96 95 93 92 92 92 91 91 90 91 91 91 90 89 86 84 83 82 80 78 76
28 29 30 31 33 33 34 34 34 35 36 37 38 40 41 42 43 45 46 48 49 51 53 55 58 60 63 65 68 70 73 75 76 78 79 80 81 81 82 84 85 85 87 88 89 89 89 88 88 87 84 83 83 83 82 83 84 85 86 87 88 88 88 88 90 92 94 95 94 92 92 91 90 89 88 86 85 86 87 87 87 84 81 80 80 78 75 73
Wind_Direction
223 220 220 223 227 226 223 226 227 228 230 228 223 220 222 224 225 229 234 237 239 239 238 238 238 236 236 237 238 239 239 239 240 240 242 245 245 245 246 245 245 245 245 246 247 249 251 253 255 257 259 260 261 262 263 264 266 267 269 270 271 272 273 273 274 274 274 274 275 276 277 277 278 280 280 281 282 283 283 284 284 283 284 284 285 284 284 283
223 219 218 221 225 226 223 224 227 227 228 229 226 221 221 224 225 228 232 234 238 239 238 239 240 238 237 237 238 240 241 240 242 243 244 246 247 247 247 247 247 247 247 248 249 250 252 254 255 257 259 260 262 263 265 266 267 269 270 271 271 272 272 272 272 273 274 275 276 277 277 278 278 279 280 281 281 282 283 284 284 284 284 284 283 283 283 283
222 218 215 218 222 226 224 222 226 227 227 229 227 223 221 224 224 227 231 233 236 238 238 239 239 240 239 238 239 240 244 245 244 246 247 248 248 249 249 249 249 249 249 249 250 252 253 255 256 258 260 261 263 264 265 267 268 268 269 270 270 271 271 271 272 274 275 276 277 277 278 278 278 278 279 280 280 281 282 282 282 282 282 282 282 282 283 284
221 217 213 215 219 224 224 221 224 227 226 228 228 223 221 223 223 225 229 232 235 236 237 238 239 242 243 242 242 243 246 248 249 249 250 250 250 251 251 250 251 251 251 251 252 253 254 256 257 259 260 261 262 263 264 265 266 267 268 269 269 270 271 272 273 274 275 276 277 277 278 278 278 278 278 279 280 281 281 281 281 281 282 282 282 282 282 283
220 215 211 213 217 222 224 220 222 227 226 227 228 223 220 221 222 225 228 231 234 236 237 240 242 246 248 248 247 247 249 250 252 253 252 252 251 252 252 252 252 252 252 253 253 254 255 256 257 258 259 260 262 263 264 264 265 266 267 268 269 271 272 273 274 275 275 276 276 276 277 278 279 279 280 280 280 281 282 282 282 282 282 282 282 282 282 283
218 213 209 211 215 219 223 219 221 226 225 225 226 222 218 218 221 225 229 231 235 238 238 242 247 250 252 252 251 250 252 253 253 254 254 253 252 251 251 251 252 253 253 253 254 254 255 256 257 258 259 260 262 263 264 265 266 266 267 269 270 272 273 274 274 275 275 275 275 275 276 278 279 280 281 281 281 282 282 282 282 282 282 282 282 282 282 283
215 210 207 209 212 217 221 218 220 226 225 225 225 222 218 218 222 227 230 232 237 240 241 244 249 252 252 252 252 252 255 255 254 255 255 254 253 252 251 251 251 252 253 254 255 256 256 258 259 260 261 262 263 264 265 266 267 268 269 270 271 272 273 274 275 275 275 275 275 276 277 278 279 280 281 282 282 282 282 282 282 282 282 282 283 282 282 282
212 207 205 207 209 215 219 218 221 225 224 224 225 223 219 220 224 228 231 233 238 242 244 246 249 252 253 252 253 255 256 256 256 256 255 255 254 253 253 252 252 252 254 255 256 257 258 259 260 261 262 263 264 265 265 266 267 269 270 271 272 273 274 275 275 275 275 276 277 278 279 280 281 282 282 282 282 282 282 282 282 282 282 282 282 282 282 282
208 204 202 203 207 213 217 218 220 223 224 225 225 224 222 223 227 229 232 234 237 241 244 247 250 252 253 254 255 255 256 257 257 256 256 256 256 256 255 255 254 255 255 256 257 259 259 259 260 261 262 262 263 265 266 267 268 269 271 272 274 274 275 275 276 276 276 277 278 279 281 282 283 283 283 283 282 282 282 282 282 282 282 282 282 282 282 282
204 201 198 200 207 213 216 218 220 223 224 225 227 227 225 225 228 230 232 233 235 238 243 247 250 252 253 255 255 255 257 258 258 258 258 258 257 257 257 257 256 257 257 258 259 259 259 259 259 260 261 262 264 266 267 268 269 271 271 272 273 274 275 276 276 277 278 279 280 281 282 282 282 282 282 282 281 281 281 281 281 281 281 281 282 282 282 282
200 196 194 199 207 213 215 217 220 223 225 226 228 230 229 228 229 231 232 233 235 238 242 245 249 252 254 255 255 255 257 259 259 259 259 259 259 258 258 259 259 260 260 260 260 260 260 260 261 262 263 264 265 267 268 269 270 271 271 272 273 275 276 277 278 279 280 281 281 282 282 282 281 281 281 281 281 281 280 280 281 281 282 282 282 282 282 282
195 191 193 201 207 211 214 216 219 222 225 227 229 230 231 231 231 232 233 234 236 238 242 245 248 250 252 254 254 254 256 257 259 259 259 259 260 259 258 259 260 260 260 260 260 261 262 263 263 264 264 265 266 267 268 269 270 271 272 274 275 276 278 279 280 281 281 281 282 282 281 281 281 281 280 280 281 281 281 281 281 282 282 282 282 282 282 282
188 188 195 202 206 209 212 215 219 221 224 227 228 229 230 230 230 231 233 235 236 238 241 244 246 248 250 251 252 252 252 254 255 257 258 258 259 258 257 255 254 255 256 257 258 260 261 262 263 264 265 266 267 267 268 269 271 272 274 276 278 279 280 280 280 281 281 281 280 280 280 280 281 281 281 281 281 281 282 282 282 282 282 282 283 283 283 282
184 190 197 201 204 208 211 215 218 220 223 225 226 227 228 229 230 231 232 234 235 237 239 241 243 245 246 247 248 248 249 250 253 256 257 257 257 257 257 255 254 254 256 258 259 260 261 262 263 265 266 267 268 269 270 271 273 275 276 278 280 282 281 281 280 280 280 280 279 279 279 280 281 281 281 282 282 282 282 283 283 283 283 282 282 282 282 281
185 193 196 198 202 206 210 214 216 219 222 222 222 224 225 226 228 229 231 232 234 235 237 239 241 243 243 244 246 248 249 251 252 254 255 254 253 254 255 256 257 258 259 260 261 262 262 263 264 265 266 267 269 270 272 273 274 275 277 279 281 281 281 281 280 280 281 281 281 280 281 281 281 281 282 282 283 284 284 284 284 284 284 284 283 282 282 281
189 192 193 196 201 205 209 212 215 219 220 220 221 222 222 224 226 228 229 230 231 232 234 235 238 241 243 245 247 249 251 251 249 248 250 251 252 254 256 258 259 260 261 262 263 264 265 265 266 267 268 269 271 272 273 274 275 277 278 280 280 280 281 281 281 282 282 282 282 282 283 283 283 283 283 284 284 284 285 285 285 285 285 285 284 283 282 281
189 189 192 196 200 204 208 211 215 218 219 221 222 223 222 224 225 226 227 229 230 231 231 231 233 238 242 244 247 249 251 250 248 246 248 251 254 255 258 260 261 262 264 265 265 266 268 268 269 270 271 272 274 275 276 277 277 278 279 279 280 280 281 283 283 284 284 283 283 283 284 285 285 286 286 286 286 286 286 286 286 286 285 285 284 284 283 282
186 187 190 194 198 202 206 211 216 218 220 221 221 221 221 221 221 222 223 225 227 228 228 229 231 235 239 242 244 246 248 249 250 250 250 252 255 257 259 261 263 265 266 268 268 269 270 271 272 273 274 275 276 277 278 279 279 279 279 279 281 282 283 283 284 284 284 284 284 284 285 285 286 287 287 288 288 288 288 288 287 287 286 285 284 284 283 282
183 186 189 193 197 201 205 211 215 218 219 218 217 216 214 213 212 212 214 216 217 220 224 227 229 231 233 237 241 244 247 250 252 254 255 255 257 259 261 263 265 266 267 268 270 271 272 274 275 276 276 277 278 279 279 279 279 280 281 281 282 282 283 283 283 283 283 283 283 284 284 285 285 286 286 287 287 287 287 287 287 287 286 285 285 284 283 282
181 184 187 192 196 200 206 210 213 215 214 213 212 209 206 204 204 207 211 213 215 216 219 224 230 232 234 239 244 247 249 251 253 255 257 259 260 262 263 265 267 268 269 270 272 273 274 276 277 278 278 278 278 278 278 278 279 281 282 282 282 282 282 283 283 284 284 284 284 285 285 286 286 286 286 286 286 286 286 286 285 285 285 285 285 284 284 284
179 181 185 191 195 201 206 210 211 211 209 207 206 203 201 202 205 208 211 214 218 220 224 230 236 239 241 245 247 248 250 252 254 256 258 260 263 264 266 268 269 271 273 274 275 276 277 278 279 279 279 279 278 278 279 279 280 281 281 281 282 282 282 283 283 284 284 285 285 286 286 286 286 285 285 285 285 285 284 284 284 284 284 284 284 284 284 284
176 179 185 191 196 201 206 208 208 207 205 204 202 200 202 206 209 210 213 220 225 229 234 237 239 241 243 246 247 248 251 253 256 258 261 263 265 268 270 272 273 275 277 278 280 280 281 281 281 281 281 281 281 281 281 281 281 281 281 281 281 281 282 282 282 283 284 284 285 285 285 285 285 285 285 285 284 284 283 283 283 283 283 283 283 282 282 282
174 180 187 192 197 201 204 205 205 204 203 201 199 201 206 211 213 215 221 228 230 232 235 236 239 242 244 246 248 250 253 256 259 262 265 267 270 272 273 275 276 278 279 281 281 282 282 282 283 283 284 284 284 283 283 283 283 283 283 283 283 283 284 284 284 285 285 285 285 285 285 285 285 285 285 285 284 284 284 284 283 283 283 282 282 282 282 282
176 183 189 193 198 201 202 202 203 202 200 198 201 206 210 214 216 219 225 229 229 231 235 238 241 244 247 249 251 254 257 261 264 267 269 272 274 275 276 277 278 279 280 282 283 283 284 285 285 286 286 286 285 285 285 285 285 285 285 286 286 287 287 286 287 286 286 286 286 286 285 284 285 286 286 285 285 285 285 284 284 283 283 283 283 282 282 282
181 186 190 194 198 200 201 201 201 200 199 201 206 212 215 218 220 220 223 228 230 233 238 241 244 247 250 253 257 260 263 265 268 270 273 275 276 277 278 279 280 281 282 284 286 287 288 288 289 288 288 287 287 287 287 287 287 287 288 288 288 288 288 287 287 286 286 286 286 286 286 286 287 287 287 287 287 287 286 286 285 284 284 284 283 283 282 282
184 188 191 195 197 199 200 199 199 200 201 206 211 216 218 221 224 226 228 231 233 236 240 244 247 251 255 258 262 265 267 269 270 272 274 276 278 280 281 283 283 284 285 287 289 290 290 290 290 290 289 289 289 289 289 289 289 290 290 289 289 289 289 289 288 288 288 288 288 288 288 288 288 288 288 289 288 288 287 286 286 285 285 284 283 283 282 281
185 188 192 195 196 197 198 198 200 203 205 209 214 217 219 223 227 230 234 238 242 243 246 249 252 256 259 262 264 267 269 271 272 274 276 278 281 283 285 286 287 288 289 290 291 291 291 292 292 291 291 291 291 291 291 291 290 290 291 290 290 290 290 290 290 290 290 290 290 290 290 290 290 290 290 289 288 288 287 286 286 285 285 284 283 283 282 281
185 189 192 195 196 197 198 200 204 207 209 213 217 220 223 227 230 233 236 241 246 250 252 254 256 259 261 264 266 269 272 274 276 278 280 282 285 287 289 290 291 291 292 292 292 293 293 293 293 293 292 292 292 292 292 292 292 291 291 291 291 291 291 291 291 292 292 292 292 291 291 291 291 291 291 290 289 288 287 286 286 285 285 284 283 283 282 281
188 191 194 196 197 198 201 204 208 211 214 215 218 222 228 233 237 239 241 244 247 250 254 257 259 261 263 264 267 270 274 276 279 281 283 286 288 290 291 291 292 292 293 293 294 294 294 294 294 294 294 294 293 293 293 293 292 292 292 292 292 292 293 293 293 293 293 293 292 292 291 291 291 292 291 290 289 288 288 287 286 286 285 284 284 283 283 282
189 192 195 197 198 201 205 209 212 215 218 221 224 228 234 239 242 244 246 248 251 254 256 258 261 263 265 267 270 273 276 279 282 284 286 289 290 291 291 291 292 293 293 294 294 294 295 295 294 294 294 294 293 293 293 293 293 293 293 294 294 294 294 294 294 293 293 293 293 292 292 292 292 292 291 291 290 289 289 288 287 287 286 285 285 285 284 284
192 194 197 199 202 206 208 212 216 220 223 228 232 236 240 244 247 249 251 253 255 257 258 260 262 265 268 271 273 276 279 281 284 286 288 290 291 291 291 292 293 294 294 294 294 294 294 294 294 294 294 294 294 294 294 294 294 294 294 294 294 294 294 294 294 294 294 294 294 294 293 293 294 294 292 291 291 290 289 289 288 287 287 286 286 286 285 285
194 197 200 202 206 211 213 215 220 225 230 235 239 242 245 249 252 254 255 255 257 258 260 262 266 269 271 273 275 278 280 283 285 288 290 291 291 291 292 293 294 294 294 294 294 295 295 295 295 295 295 295 295 295 295 295 296 296 296 295 295 295 294 294 294 294 294 294 295 294 294 294 294 293 292 291 290 290 289 288 288 287 287 287 287 286 286 286
197 199 203 207 211 215 217 219 224 228 233 238 243 246 249 252 255 256 256 257 259 261 263 266 269 271 273 275 277 280 282 285 287 289 291 292 292 293 293 294 294 295 295 296 296 296 296 296 296 295 295 295 295 296 296 297 297 297 297 297 296 296 295 295 294 294 293 294 294 293 293 293 293 292 291 291 290 290 289 289 288 288 288 288 288 287 287 287
200 204 207 211 215 218 221 224 228 232 236 240 244 249 252 255 257 258 259 260 262 264 267 269 272 274 276 278 279 281 284 286 289 291 292 292 293 293 293 294 294 295 295 295 295 295 295 295 295 296 296 296 297 297 297 298 298 298 298 297 297 297 296 295 295 294 293 293 292 292 292 292 292 292 291 290 290 289 289 289 288 289 289 289 289 289 289 288
206 209 212 217 221 224 227 231 234 237 240 244 248 252 255 257 259 261 262 264 267 270 272 274 276 278 279 281 282 284 286 288 290 291 292 292 293 293 294 294 294 294 294 294 295 295 296 296 296 297 297 298 298 299 299 299 299 299 298 298 298 297 296 296 296 296 295 294 294 293 292 293 292 292 291 290 290 289 289 289 289 290 290 290 290 290 289 289
214 216 220 224 228 231 235 238 240 242 244 247 251 255 257 260 262 264 267 269 272 274 276 278 280 281 282 284 286 287 289 290 290 291 292 292 293 294 294 295 295 295 295 296 296 297 298 298 298 298 299 300 300 301 300 300 300 300 300 299 298 297 297 297 297 297 296 296 296 295 294 294 293 293 291 291 290 290 290 291 291 291 291 290 290 289 288 287
224 226 229 232 235 239 242 244 246 247 249 252 256 259 261 264 266 268 271 273 275 277 279 281 283 284 286 287 288 289 290 291 291 292 293 294 294 294 295 295 296 296 297 297 298 298 299 299 300 300 301 302 302 302 302 301 301 301 300 299 298 298 298 298 297 297 296 296 297 296 296 296 295 293 292 290 290 291 291 291 291 290 290 289 288 287 286 286
231 234 236 239 242 245 247 249 251 253 256 259 261 264 266 268 270 272 274 276 278 280 281 283 284 285 287 288 288 289 290 291 292 293 294 294 294 294 295 296 297 297 298 298 299 299 300 301 302 302 302 302 302 302 302 302 301 301 300 299 299 299 299 299 299 299 298 297 298 297 296 297 296 294 292 292 292 292 292 292 291 291 290 290 289 288 288 288
238 241 243 245 248 250 252 254 257 260 263 265 266 268 270 272 273 275 277 278 280 281 283 284 285 286 287 288 289 290 291 292 293 293 293 294 295 296 297 297 298 299 299 300 300 301 302 303 303 303 303 303 303 303 303 303 303 303 302 302 302 301 301 301 301 301 300 300 299 298 298 298 296 294 293 294 295 295 294 294 294 293 293 292 292 291 291 290
244 246 248 250 252 255 258 260 263 265 267 268 270 271 273 274 275 277 278 279 281 283 284 286 286 287 288 290 291 292 293 293 293 294 294 296 297 298 299 299 300 301 302 302 303 304 304 304 305 305 305 305 305 305 305 306 306 305 304 304 304 303 303 303 303 302 302 302 302 300 301 301 298 296 296 297 297 297 297 297 297 296 296 295 295 295 294 293
249 251 253 255 257 260 262 264 266 268 269 271 272 273 275 276 277 278 280 282 284 285 286 286 287 289 290 291 292 293 293 293 294 295 297 298 299 300 301 302 303 303 304 305 305 306 306 306 307 307 307 307 307 307 308 308 307 306 305 305 305 304 304 303 303 303 302 303 302 302 303 303 300 299 300 300 299 300 300 300 299 298 298 298 298 297 296 295
254 256 258 260 261 263 265 267 268 269 271 273 274 275 277 279 280 282 283 285 286 286 287 287 289 290 291 292 292 293 294 295 296 298 300 300 301 302 303 304 305 305 306 307 307 307 308 308 308 309 309 309 308 309 309 309 308 307 307 306 305 305 305 304 304 304 303 304 303 303 304 304 302 302 302 302 301 302 302 301 301 300 300 299 298 297 296 296
257 259 261 264 265 266 268 270 271 273 275 276 278 279 280 282 283 284 285 286 286 287 287 289 290 291 292 292 293 294 296 298 299 300 301 302 303 304 305 306 306 307 308 309 309 309 309 309 309 310 310 310 310 311 311 310 309 308 307 306 306 306 306 306 306 305 305 305 304 303 304 304 304 304 304 304 304 304 303 303 302 302 301 300 299 298 298 298
261 263 265 268 270 272 273 274 276 278 279 281 282 282 283 284 285 285 286 286 287 287 289 290 290 292 293 294 295 297 298 300 301 302 303 305 306 306 307 308 308 309 310 310 310 310 310 310 311 311 311 311 311 311 310 310 309 308 307 306 306 307 307 306 306 305 305 305 305 305 305 306 306 306 305 306 306 306 305 304 304 303 303 302 302 301 301 301
267 269 271 274 276 277 278 280 281 282 283 283 284 284 285 285 286 286 286 287 288 289 290 291 292 293 294 295 297 299 300 302 303 304 306 306 307 308 309 309 310 311 311 311 311 312 312 313 313 314 313 312 312 311 310 309 308 308 308 308 308 307 307 306 306 306 306 307 307 306 306 307 308 307 307 307 307 306 306 305 305 305 305 304 304 303 303 303
274 275 277 278 280 281 282 283 283 284 284 284 285 285 285 285 285 286 287 288 290 291 292 293 294 295 296 298 299 301 302 304 305 306 307 308 309 309 310 311 311 312 312 312 313 313 314 314 315 315 315 313 313 312 311 311 310 310 309 309 309 309 308 308 308 309 308 308 308 307 307 309 309 308 308 308 308 307 307 307 307 306 306 305 304 304 304 303
278 279 281 282 283 284 284 284 285 285 285 285 285 285 285 286 287 288 289 291 292 293 294 295 296 297 298 300 301 303 304 305 306 307 308 309 310 311 311 312 312 313 313 313 314 314 315 316 316 316 315 313 313 313 313 313 312 311 311 311 311 311 311 310 311 310 310 310 310 309 310 311 310 308 309 309 308 308 308 307 307 306 305 304 304 305 304 302
281 282 283 284 285 285 285 286 286 285 285 285 285 286 287 288 289 291 292 293 294 295 295 296 298 299 300 302 303 305 306 307 308 309 310 310 311 312 312 313 313 314 314 315 315 316 316 316 316 316 315 314 314 315 315 314 314 313 313 313 313 313 312 312 312 312 312 311 311 310 311 311 310 309 310 309 308 308 308 307 307 306 305 305 305 305 303 302
284 285 285 285 285 285 286 286 286 286 286 286 287 288 289 291 291 292 293 294 295 296 297 299 300 301 302 304 305 306 307 309 310 310 311 311 312 313 313 314 315 315 315 316 316 316 316 316 316 316 316 315 315 316 316 315 315 315 314 314 314 313 313 314 314 313 312 311 310 310 311 311 309 309 310 309 309 309 308 307 307 306 305 305 306 305 304 304
285 286 287 287 287 287 287 287 287 287 287 288 289 290 291 292 293 294 294 295 297 298 299 300 301 303 304 305 307 308 309 310 310 311 311 312 313 314 315 315 316 316 316 316 316 316 316 316 316 316 316 316 316 317 317 317 316 316 315 315 315 314 315 315 314 312 311 310 309 310 311 310 310 310 310 310 309 309 308 307 307 306 306 306 306 306 305 305
286 287 288 289 289 289 289 289 289 289 289 290 291 291 292 293 294 295 296 297 299 300 301 302 303 305 306 307 308 309 310 310 311 312 313 314 314 315 315 316 316 316 316 316 317 317 317 317 317 316 317 317 317 317 318 317 316 316 316 315 315 314 315 314 313 312 311 310 310 311 312 311 311 310 310 310 309 309 308 308 307 307 308 309 308 307 306 305
287 288 289 290 290 289 289 290 290 290 291 291 292 293 294 294 295 297 298 300 301 302 303 304 305 306 308 309 309 310 311 311 312 313 314 315 315 316 316 316 316 317 317 317 317 318 317 318 317 317 317 318 317 318 318 317 316 316 315 315 314 313 314 314 314 313 312 311 312 313 312 311 311 310 309 310 310 310 310 309 308 309 310 309 308 307 306 305